Location: Forli
(44.2227°N, 12.0407°E)
Time: 13:38:37
(UTC+01:00)

ARIANE 6 FM1 Upper Stage - Pass Details

Date: 18 February 2026
Orbit: 523 x 607 km, 62.0° (Epoch: 8 March)

Event Time Altitude Azimuth Distance (km) Brightness Sun altitude
Rises 18:38:19 0° 323° (NW) 2,659 6.6 -10.2°
Reaches altitude 10° 18:40:32 10° 327° (NNW) 1,767 5.6 -10.6°
Maximum altitude 18:44:27 58° 47° (NE) 619 2.6 -11.3°
Enters shadow 18:48:20 10° 127° (SE) 1,759 4.8 -12.0°
